Location: Huppendorf
(49.9333°N, 11.1500°E)
Time: 04:01:02
(UTC+00:00)

USA 229 DEB - Pass Details

Date: 27 February 2020
Orbit: 988 x 1224 km, 63.4° (Epoch: 26 March)

Event Time Altitude Azimuth Distance (km) Brightness Sun altitude
Rises 17:16:48 0° 229° (SW) 3,720 7.6 -4.6°
Reaches altitude 10° 17:19:20 10° 231° (SW) 2,792 7.0 -5.0°
Maximum altitude 17:25:55 73° 316° (NW) 1,096 4.0 -6.0°
Drops below altitude 10° 17:32:54 10° 42° (NE) 2,956 5.6 -7.1°
Sets 17:35:40 0° 44° (NE) 3,952 6.2 -7.6°
